When you browse on this site, cookies collect data to enhance your experience and personalize the content and advertising you see.
Visit our Privacy Policy to learn more. By continuing to use the site, you agree to this use of cookies and data.
  • In France
  • List of Countries
  • For 7 days
  • Water Temperature
  • Weather Map
  • Weather Widgets
  • user-avatar
    Login

    Hourly Weather Przyjezierze

    Today, 15 October, Tuesday

    Time Temperature Precipitation Wind Pressure Humidity
    00:00 +12°C° 0 mm 2 mps 755 mmHg 85%
    01:00 +12°C° 0 mm 2 mps 755 mmHg 83%
    02:00 +11°C° 0 mm 3 mps 755 mmHg 82%
    03:00 +11°C° 0 mm 3 mps 754 mmHg 81%
    04:00 +11°C° 0 mm 3 mps 754 mmHg 81%
    05:00 +11°C° 0 mm 4 mps 754 mmHg 81%
    06:00 +11°C° 0 mm 4 mps 754 mmHg 82%
    07:00 +10°C° 0 mm 5 mps 754 mmHg 82%
    08:00 +13°C° 0 mm 4 mps 753 mmHg 80%
    09:00 +15°C° 0 mm 4 mps 753 mmHg 77%
    10:00 +17°C° 0 mm 4 mps 752 mmHg 74%
    11:00 +18°C° 0 mm 4 mps 752 mmHg 71%
    12:00 +19°C° 0 mm 4 mps 751 mmHg 68%
    13:00 +20°C° 0 mm 4 mps 751 mmHg 65%
    14:00 +20°C° 0 mm 4 mps 750 mmHg 67%
    15:00 +19°C° 0 mm 3 mps 750 mmHg 69%
    16:00 +19°C° 0 mm 2 mps 749 mmHg 71%
    17:00 +17°C° 0 mm 2 mps 749 mmHg 75%
    18:00 +16°C° 0 mm 2 mps 749 mmHg 78%
    19:00 +14°C° 0 mm 3 mps 749 mmHg 82%
    20:00 +14°C° 0 mm 3 mps 748 mmHg 83%
    21:00 +14°C° 0 mm 3 mps 748 mmHg 85%
    22:00 +14°C° 0 mm 3 mps 748 mmHg 86%
    23:00 +13°C° 0 mm 3 mps 748 mmHg 85%

    Tomorrow, 16 October, Wednesday

    Time Temperature Precipitation Wind Pressure Humidity
    00:00 +13°C° 0 mm 3 mps 748 mmHg 84%
    01:00 +13°C° 0 mm 3 mps 748 mmHg 84%
    02:00 +13°C° 0 mm 3 mps 747 mmHg 84%
    03:00 +13°C° 0 mm 3 mps 747 mmHg 84%
    04:00 +13°C° 0 mm 3 mps 746 mmHg 84%
    05:00 +12°C° 0 mm 3 mps 746 mmHg 85%
    06:00 +12°C° 0 mm 3 mps 746 mmHg 86%
    07:00 +12°C° 0 mm 3 mps 746 mmHg 87%
    08:00 +13°C° 0 mm 4 mps 746 mmHg 86%
    09:00 +14°C° 0 mm 5 mps 747 mmHg 84%
    10:00 +15°C° 0 mm 5 mps 747 mmHg 83%
    11:00 +14°C° 0.1 mm 6 mps 747 mmHg 81%
    12:00 +12°C° 0.1 mm 7 mps 748 mmHg 79%
    13:00 +12°C° 0.1 mm 7 mps 748 mmHg 76%
    14:00 +12°C° 0 mm 7 mps 748 mmHg 74%
    15:00 +12°C° 0 mm 7 mps 748 mmHg 72%
    16:00 +13°C° 0 mm 6 mps 749 mmHg 69%
    17:00 +11°C° 0.4 mm 7 mps 748 mmHg 73%
    18:00 +11°C° 0.4 mm 7 mps 748 mmHg 76%
    19:00 +10°C° 0.4 mm 7 mps 748 mmHg 80%
    20:00 +11°C° 3.5 mm 8 mps 747 mmHg 84%
    21:00 +11°C° 3.5 mm 9 mps 747 mmHg 87%
    22:00 +11°C° 3.5 mm 10 mps 747 mmHg 91%
    23:00 +11°C° 3.3 mm 10 mps 748 mmHg 91%

    Day after tomorrow, 17 October, Thursday

    Time Temperature Precipitation Wind Pressure Humidity
    00:00 +11°C° 3.3 mm 10 mps 748 mmHg 90%
    01:00 +11°C° 3.3 mm 10 mps 748 mmHg 90%
    02:00 +11°C° 0.4 mm 9 mps 749 mmHg 90%
    03:00 +11°C° 0.4 mm 8 mps 750 mmHg 90%
    04:00 +11°C° 0.4 mm 8 mps 750 mmHg 90%
    05:00 +11°C° 0.1 mm 7 mps 751 mmHg 90%
    06:00 +11°C° 0.1 mm 6 mps 752 mmHg 91%
    07:00 +10°C° 0.1 mm 5 mps 752 mmHg 91%
    08:00 +12°C° 0 mm 5 mps 753 mmHg 91%
    09:00 +12°C° 0 mm 4 mps 753 mmHg 90%
    10:00 +12°C° 0 mm 4 mps 754 mmHg 89%
    11:00 +12°C° 0 mm 3 mps 754 mmHg 88%
    12:00 +13°C° 0 mm 3 mps 754 mmHg 87%
    13:00 +14°C° 0 mm 2 mps 755 mmHg 85%
    14:00 +15°C° 0 mm 2 mps 755 mmHg 85%
    15:00 +15°C° 0 mm 2 mps 755 mmHg 84%
    16:00 +15°C° 0 mm 1 mps 755 mmHg 84%
    17:00 +15°C° 0 mm 2 mps 755 mmHg 84%
    18:00 +14°C° 0 mm 2 mps 755 mmHg 85%
    19:00 +14°C° 0 mm 2 mps 755 mmHg 86%
    20:00 +14°C° 0 mm 2 mps 755 mmHg 85%
    21:00 +13°C° 0 mm 2 mps 756 mmHg 85%
    22:00 +13°C° 0 mm 2 mps 756 mmHg 84%
    23:00 +13°C° 0 mm 2 mps 756 mmHg 86%

    18 October, Friday

    Time Temperature Precipitation Wind Pressure Humidity
    00:00 +12°C° 0 mm 2 mps 756 mmHg 88%
    01:00 +12°C° 0 mm 2 mps 756 mmHg 91%
    02:00 +12°C° 0 mm 2 mps 756 mmHg 91%
    03:00 +12°C° 0 mm 2 mps 756 mmHg 91%
    04:00 +12°C° 0 mm 1 mps 756 mmHg 91%
    05:00 +12°C° 0.1 mm 1 mps 756 mmHg 92%
    06:00 +12°C° 0.1 mm 1 mps 756 mmHg 92%
    07:00 +12°C° 0.1 mm 1 mps 756 mmHg 93%
    08:00 +13°C° 0 mm 1 mps 757 mmHg 89%
    09:00 +14°C° 0 mm 1 mps 757 mmHg 86%
    10:00 +14°C° 0 mm 1 mps 757 mmHg 82%
    11:00 +15°C° 0 mm 1 mps 757 mmHg 79%
    12:00 +16°C° 0 mm 2 mps 757 mmHg 75%
    13:00 +16°C° 0 mm 2 mps 757 mmHg 72%
    14:00 +16°C° 0 mm 2 mps 756 mmHg 73%
    15:00 +15°C° 0 mm 2 mps 756 mmHg 75%
    16:00 +15°C° 0 mm 1 mps 756 mmHg 76%
    17:00 +14°C° 0 mm 2 mps 756 mmHg 77%
    18:00 +13°C° 0 mm 2 mps 756 mmHg 78%
    19:00 +13°C° 0 mm 2 mps 756 mmHg 79%
    20:00 +13°C° 0 mm 2 mps 756 mmHg 77%
    21:00 +12°C° 0 mm 3 mps 756 mmHg 76%
    22:00 +12°C° 0 mm 3 mps 756 mmHg 75%
    23:00 +13°C° 0 mm 3 mps 756 mmHg 75%

    19 October, Saturday

    Time Temperature Precipitation Wind Pressure Humidity
    00:00 +13°C° 0 mm 3 mps 756 mmHg 76%
    01:00 +13°C° 0 mm 3 mps 756 mmHg 77%
    02:00 +13°C° 0 mm 3 mps 756 mmHg 77%
    03:00 +12°C° 0 mm 3 mps 756 mmHg 78%
    04:00 +12°C° 0 mm 3 mps 756 mmHg 79%
    05:00 +12°C° 0 mm 3 mps 756 mmHg 80%
    06:00 +12°C° 0 mm 3 mps 756 mmHg 80%
    07:00 +12°C° 0 mm 3 mps 756 mmHg 81%
    08:00 +13°C° 0 mm 3 mps 756 mmHg 79%
    09:00 +13°C° 0 mm 3 mps 756 mmHg 77%
    10:00 +14°C° 0 mm 4 mps 756 mmHg 75%
    11:00 +15°C° 0 mm 4 mps 756 mmHg 71%
    12:00 +17°C° 0 mm 4 mps 756 mmHg 67%
    13:00 +18°C° 0 mm 4 mps 756 mmHg 63%
    14:00 +18°C° 0 mm 3 mps 755 mmHg 66%
    15:00 +17°C° 0 mm 3 mps 755 mmHg 70%
    16:00 +17°C° 0 mm 2 mps 755 mmHg 73%
    17:00 +16°C° 0 mm 2 mps 755 mmHg 76%
    18:00 +14°C° 0 mm 3 mps 755 mmHg 78%
    19:00 +13°C° 0 mm 3 mps 755 mmHg 81%
    20:00 +13°C° 0 mm 3 mps 754 mmHg 83%
    21:00 +13°C° 0 mm 3 mps 754 mmHg 85%
    22:00 +12°C° 0 mm 3 mps 754 mmHg 87%
    23:00 +12°C° 0 mm 3 mps 754 mmHg 88%

    20 October, Sunday

    Time Temperature Precipitation Wind Pressure Humidity
    00:00 +12°C° 0 mm 3 mps 753 mmHg 89%
    01:00 +12°C° 0 mm 3 mps 753 mmHg 91%
    02:00 +12°C° 0 mm 3 mps 753 mmHg 91%
    03:00 +12°C° 0 mm 3 mps 752 mmHg 91%
    04:00 +12°C° 0 mm 3 mps 752 mmHg 91%
    05:00 +12°C° 0 mm 3 mps 751 mmHg 91%
    06:00 +12°C° 0 mm 4 mps 751 mmHg 91%
    07:00 +12°C° 0 mm 4 mps 751 mmHg 91%
    08:00 +13°C° 0 mm 4 mps 750 mmHg 84%
    09:00 +15°C° 0 mm 5 mps 750 mmHg 77%
    10:00 +16°C° 0 mm 5 mps 749 mmHg 71%
    11:00 +17°C° 0 mm 5 mps 749 mmHg 68%
    12:00 +17°C° 0 mm 5 mps 749 mmHg 65%
    13:00 +19°C° 0 mm 5 mps 749 mmHg 62%
    14:00 +18°C° 0 mm 4 mps 749 mmHg 66%
    15:00 +17°C° 0 mm 4 mps 749 mmHg 70%
    16:00 +17°C° 0 mm 4 mps 749 mmHg 74%
    17:00 +16°C° 0 mm 3 mps 750 mmHg 77%
    18:00 +14°C° 0 mm 3 mps 750 mmHg 79%
    19:00 +14°C° 0 mm 3 mps 751 mmHg 82%
    20:00 +13°C° 0 mm 3 mps 751 mmHg 82%
    21:00 +13°C° 0 mm 2 mps 752 mmHg 83%
    22:00 +13°C° 0 mm 2 mps 752 mmHg 83%
    23:00 +13°C° 0 mm 2 mps 752 mmHg 84%
    Show more